Flag for Argentina Weather past 2 weeks in Tucumán, Tucumán, Argentina

Now
68 °F

Clear.


Feels Like: 68 °F
Forecast: 60 / 92 °F
Wind: 7 mph from West

Location: Tucuman Aerodrome

Current Time: Aug 31, 2015 at 1:58:37 AM

Latest Report: Aug 31, 2015 at 1:00 AM


Visibility: 5 mi

Pressure: 29.83 "Hg

Humidity: 73%

Dew point: 59 °F

Location of TucumánLocation

Historic Weather in Tucumán — Graph

°F

Tucumán temperature yesterday

Maximum temperature yesterday: 95 °F (at 3:00 PM)
Minimum temperature yesterday: 63 °F (at 5:00 AM)
Average temperature yesterday: 76 °F

Past Weeks' High & Low Weather Summary

 TemperatureHumidityPressure
High95 °F (Aug 29, 4:00 PM)100% (Aug 19, 10:00 PM)30.27 "Hg (Aug 19, 10:00 PM)
Low46 °F (Aug 18, 5:00 AM)18% (Aug 23, 4:00 PM)29.62 "Hg (Aug 22, 5:00 AM)
Average64 °F61%29.98 "Hg
* Reported Midnight between Aug 15 and Aug 16 — Midnight between Aug 30 and Aug 31, Tucumán, Weather by CustomWeather, © 2015

Note: Actual official high and low records may vary slightly from our data, if they occured in-between our weather recording intervals... More about our weather records

Advertising

Tucumán weather history for previous 24 hours

 ConditionsComfort  
Time TempWeatherWind HumidityBarometerVisibility
12:00 AM
Mon, Aug 31
70 °FClear.7 mph64%29.83 "Hg5 mi
11:00 PM
Sun, Aug 30
73 °FClear.7 mph65%29.83 "Hg5 mi
10:00 PM75 °FClear.8 mph61%29.80 "Hg5 mi
8:00 PM81 °FClear.7 mph54%29.74 "Hg5 mi
6:00 PM93 °FClear.3 mph34%29.74 "Hg5 mi
5:00 PM93 °FClear.12 mph32%29.71 "Hg4 mi
4:00 PM93 °FClear.9 mph30%29.74 "Hg4 mi
3:00 PM95 °FClear.7 mph28%29.74 "Hg4 mi
2:00 PM93 °FClear.No wind30%29.77 "Hg4 mi
1:00 PM90 °FClear.No wind33%29.80 "Hg4 mi
12:00 PM84 °FClear.5 mph37%29.83 "Hg4 mi
11:00 AM82 °FClear.No wind42%29.83 "Hg4 mi
10:00 AM73 °FClear.6 mph50%29.83 "Hg6 mi
9:00 AM66 °FClear.5 mph60%29.83 "Hg6 mi
8:00 AM63 °FClear.9 mph64%29.83 "Hg6 mi
7:00 AM63 °FSunny.7 mph64%29.80 "Hg10 mi
6:00 AM63 °FClear.9 mph68%29.77 "Hg10 mi
5:00 AM63 °FClear.9 mph73%29.77 "Hg10 mi
4:00 AM64 °FClear.9 mph64%29.77 "Hg10 mi
3:00 AM64 °FClear.14 mph68%29.80 "Hg10 mi
1:00 AM68 °FClear.9 mph69%29.83 "Hg10 mi
Weather by CustomWeather, © 2015

See weather overviewHow to use our weather pages